sat.trackr.live / text

‹ back to catalog

STARLINK-30153

NORAD 57510 · 2023-113R

PAYLOAD ACTIVE UNKNOWN

§ Identity

Operator
Country
US
Launch date
2023-08-07
Launch site
AFETR
Launch vehicle
Mass (kg)
RCS (m²)

Purposes: comms

External: N2YO · Heavens-Above · Gunter

§ Orbital elements

Epoch: 2026-05-25T03:42:29.417760Z

Period
94.27 min
Inclination
43.0056°
Eccentricity
0.0002171
Mean motion
15.27580909 rev/d
Perigee alt
481.6 km
Apogee alt
484.5 km
Semi-major
6,861.2 km
B*
3.0218e-5
RAAN
303.8949°
Arg perigee
264.8249°
Mean anomaly
95.2355°
Rev number
15,526

§ Raw data

STARLINK-301531 57510U 23113R   26145.15450715  .00000569  00000+0  30218-4 0  99912 57510  43.0056 303.8949 0002171 264.8249  95.2355 15.27580909155264

JSON: /api/v1/satellites/57510 · /tle

For live sub-satellite position, see the globe view (requires WebGL).

§ Visibility from observer

Set your observer location to see the next 7 days of passes ≥ 10°. The values pass through the URL so the page stays shareable.

No JS? Fill the form by hand. The geolocation button needs JavaScript.